Wind_Speed
23 23 23 23 23 24 24 24 24 25 25 26 27 28 29 30 30 31 32 33 34 35 36 37 38 39 40 42 43 44 44 44 43 43 44 43 42 41 42 42 41 42 42
24 23 24 24 24 25 25 25 25 26 26 27 28 28 29 29 30 30 31 32 33 34 35 36 38 39 40 42 43 44 45 45 45 44 45 45 44 44 44 43 44 43 43
24 24 24 25 25 26 26 26 26 27 27 28 28 28 29 29 29 30 30 31 32 33 34 35 36 37 38 40 42 43 44 45 45 45 45 46 46 45 45 45 45 44 43
25 25 25 25 26 27 27 27 27 27 27 28 28 29 29 29 29 30 30 31 31 31 32 33 34 36 37 38 40 42 42 43 45 45 45 45 45 45 46 45 45 45 44
26 26 26 27 27 28 28 28 28 28 28 29 29 30 30 30 30 30 30 30 30 30 30 31 31 33 34 36 37 39 41 42 43 43 44 44 44 45 45 44 45 45 45
26 27 28 28 28 29 29 29 29 29 29 30 30 30 30 30 29 29 29 29 29 29 28 28 29 30 31 33 35 37 38 39 40 42 42 42 43 45 45 44 45 44 44
27 28 28 29 29 30 30 29 30 30 30 30 30 30 30 30 29 29 29 28 27 27 27 27 28 28 29 31 32 34 36 37 38 39 40 41 42 43 44 44 45 45 44
27 28 29 29 29 30 30 30 30 30 30 31 31 30 30 29 29 29 28 27 26 26 26 26 26 26 28 29 30 32 34 35 36 37 39 40 42 43 43 43 44 44 44
28 28 29 29 30 30 31 31 31 31 31 31 31 30 30 29 29 29 28 26 25 24 24 23 23 24 25 26 28 30 31 33 35 36 37 38 40 41 42 44 44 44 44
28 29 29 30 30 31 31 32 31 31 31 31 31 30 29 29 29 29 27 26 24 23 22 21 22 22 23 24 25 27 28 30 32 34 36 37 39 40 41 42 44 44 44
28 29 30 30 31 31 32 32 32 32 32 32 31 30 29 29 29 28 27 26 24 22 20 20 20 20 20 21 22 24 25 27 30 31 34 36 37 38 40 41 42 43 44
28 29 30 31 32 32 32 32 32 32 32 32 31 30 30 30 29 28 27 25 23 21 19 18 18 17 17 18 19 21 23 25 27 29 31 34 35 37 39 40 41 42 43
29 30 31 31 32 32 33 32 32 32 32 31 31 31 31 30 29 28 27 25 23 21 19 18 16 16 15 16 18 19 21 23 25 26 27 30 32 34 37 38 39 40 42
29 30 31 32 32 33 34 33 33 33 33 32 32 31 31 30 29 28 27 25 23 21 19 17 15 14 13 14 15 17 19 20 22 24 25 27 29 31 34 37 37 38 39
30 31 32 33 34 34 34 34 34 34 33 33 32 31 30 29 28 28 27 24 23 21 19 17 15 13 12 11 12 14 16 18 19 21 23 25 27 29 31 33 36 37 38
31 32 33 34 35 35 34 35 35 33 33 32 32 31 30 29 28 27 26 24 22 21 19 16 14 12 11 11 11 11 13 15 17 19 21 24 26 28 30 32 34 35 36
31 32 33 35 36 35 35 35 34 33 33 32 31 31 30 29 28 27 26 24 22 21 19 16 14 13 12 10 10 10 11 12 14 16 19 21 24 27 28 30 33 34 36
32 33 34 35 36 35 35 36 35 33 33 32 31 30 30 29 28 26 25 24 22 21 18 16 14 13 12 10 10 10 10 11 13 15 17 19 21 24 26 27 30 32 34
33 35 36 36 36 36 36 35 35 34 33 32 31 30 29 29 27 26 25 24 22 20 18 16 14 13 12 10 9 9 9 10 11 13 15 17 20 22 25 26 28 30 31
35 35 36 36 36 36 36 36 35 34 33 32 31 30 29 28 27 26 25 23 22 20 18 17 15 14 11 10 10 9 9 10 11 12 14 16 18 20 22 24 26 28 30
36 36 37 37 37 37 36 35 35 34 33 32 31 30 29 28 27 26 24 23 22 20 18 17 16 14 12 11 11 10 9 9 9 11 12 14 16 18 20 22 24 26 28
37 38 38 38 38 38 37 36 35 34 33 32 31 29 28 27 26 25 24 23 21 20 19 17 16 14 13 13 12 11 10 9 9 10 11 13 14 16 18 19 21 24 26
39 39 39 39 39 38 37 36 35 34 33 32 31 30 28 27 26 25 24 23 21 20 19 18 16 15 14 13 13 12 11 10 10 10 11 12 13 15 16 18 20 22 24
40 40 40 40 39 38 38 37 35 34 33 32 31 30 28 27 25 24 23 22 21 20 19 18 16 15 14 13 12 11 11 11 11 11 11 11 12 14 15 17 19 21 23
41 41 41 40 39 38 37 36 35 33 32 31 30 29 28 26 25 24 23 22 21 20 18 17 16 15 14 13 12 11 10 10 10 11 11 11 12 13 13 15 17 19 21
43 42 42 41 40 38 37 36 35 33 31 30 30 29 27 25 25 23 22 21 20 19 17 16 15 14 14 13 12 11 10 10 11 11 11 11 11 12 13 14 15 16 18
Wind_Direction
336 334 332 330 328 326 324 322 318 316 314 312 309 307 304 300 296 292 288 284 279 275 270 267 263 260 257 254 252 250 249 248 246 244 243 242 241 238 236 236 235 233 232
338 336 334 333 331 329 326 324 321 319 317 315 313 310 306 303 299 296 291 287 282 277 273 268 264 261 258 255 252 250 249 248 246 243 241 240 240 238 236 235 234 233 233
340 338 336 335 334 332 329 327 324 321 320 319 317 314 310 306 303 300 296 291 286 281 276 271 266 262 259 255 252 250 249 248 246 243 240 239 239 239 237 236 234 234 234
342 342 340 338 336 333 331 329 327 325 323 322 320 317 314 311 308 304 299 295 290 284 279 274 269 263 259 255 252 249 248 247 246 243 240 238 238 237 237 236 234 233 234
343 343 342 340 338 336 334 332 330 328 326 324 322 321 318 315 311 307 302 297 293 289 283 277 271 265 259 255 252 249 247 246 244 242 239 237 237 236 235 235 234 233 232
344 343 343 343 341 340 338 335 333 331 329 327 325 323 321 318 314 311 307 301 296 291 285 279 273 268 262 256 252 249 246 245 243 241 238 236 234 234 234 234 234 233 232
343 343 343 343 343 342 341 339 337 335 333 331 330 327 324 321 318 314 311 306 301 295 288 281 276 271 264 258 253 248 246 244 242 240 238 235 233 232 232 233 233 233 231
342 342 343 344 343 343 343 342 340 338 336 335 333 331 328 324 322 319 315 310 306 299 292 284 278 273 266 260 253 249 246 243 241 238 237 236 234 232 231 232 232 231 231
342 343 344 344 344 344 344 343 341 340 339 337 335 334 332 329 326 324 321 317 311 304 297 289 281 275 268 260 254 249 246 243 240 237 235 234 234 232 232 230 230 230 230
343 343 344 344 344 343 343 342 341 341 340 339 337 336 335 332 330 329 326 323 318 310 301 292 286 279 270 260 254 248 244 242 239 236 234 234 233 232 232 231 229 229 229
343 343 343 343 342 342 342 341 341 340 340 340 339 338 337 335 333 331 330 327 324 318 308 300 292 284 273 263 253 247 243 242 238 237 235 234 233 232 232 231 229 228 226
341 341 342 342 342 342 342 341 341 341 341 341 340 339 339 338 337 335 334 331 329 324 317 308 300 290 276 262 253 247 243 241 239 237 235 234 233 232 230 229 229 228 225
338 339 340 341 342 342 342 341 341 341 341 341 341 341 341 341 341 340 338 336 333 329 323 315 305 294 282 269 256 249 246 242 239 235 232 231 231 230 228 226 225 227 225
335 336 338 339 340 341 341 341 341 341 342 342 341 341 341 341 342 341 341 340 338 334 329 321 312 303 290 276 264 253 249 242 236 232 228 228 230 229 229 228 226 226 226
331 333 335 337 338 339 340 341 341 341 342 342 342 342 342 341 341 341 342 341 339 338 335 327 317 307 298 289 272 257 249 243 237 231 228 227 229 227 226 227 226 225 225
326 328 331 334 335 336 337 338 340 340 341 341 341 341 341 341 341 342 342 343 342 341 338 332 325 316 307 298 284 269 254 246 242 237 232 229 228 227 226 226 225 225 224
324 326 328 330 332 334 335 336 337 337 338 339 339 340 341 340 340 341 342 341 341 342 339 335 329 325 318 305 290 277 262 251 245 239 235 232 227 226 225 226 225 224 225
321 323 325 328 330 331 332 333 334 334 336 338 338 339 340 340 340 340 340 340 340 340 339 336 332 328 322 311 298 285 268 255 249 241 234 229 227 227 226 225 224 224 224
318 320 322 325 327 328 330 331 332 333 335 336 336 337 338 338 338 338 338 339 338 338 337 335 331 329 326 320 311 296 278 264 256 245 236 229 229 229 228 227 226 224 225
315 317 319 322 323 325 327 328 328 330 331 332 333 334 335 335 336 335 336 336 337 337 336 334 331 328 322 318 316 306 288 272 261 250 240 234 231 231 230 230 229 227 226
312 313 315 317 319 321 323 324 324 325 326 328 330 331 332 333 333 333 334 334 334 335 334 333 330 324 317 312 309 305 294 280 265 254 247 240 235 233 232 231 229 227 227
308 309 311 314 315 317 319 320 321 321 322 323 325 327 328 330 331 331 331 332 332 331 330 329 328 323 314 310 307 303 292 279 268 260 251 245 240 237 233 231 229 228 228
306 305 307 309 311 313 314 316 317 317 318 319 321 322 324 326 327 327 328 329 329 329 328 326 324 321 316 311 304 300 291 280 273 267 260 252 245 241 236 234 230 229 229
304 304 305 306 308 310 311 312 313 313 313 314 316 318 319 321 322 322 324 325 326 326 325 324 322 320 316 313 308 300 290 280 273 268 265 259 252 246 241 238 236 234 231
302 302 302 304 305 305 306 307 308 309 309 310 312 314 316 316 317 318 319 322 324 323 322 321 320 320 319 313 307 300 291 284 275 266 263 260 254 249 245 241 239 237 233
299 299 299 300 301 301 301 302 303 303 304 306 308 310 312 312 312 313 314 317 320 320 319 319 318 316 316 315 311 302 292 284 278 269 259 255 253 250 246 242 239 237 234
Height
5805 5801 5797 5793 5790 5786 5782 5779 5775 5772 5768 5765 5762 5758 5755 5752 5749 5746 5744 5742 5740 5739 5739 5739 5740 5741 5742 5744 5747 5750 5754 5758 5763 5768 5772 5776 5781 5786 5791 5795 5801 5806 5811
5802 5798 5794 5790 5785 5781 5777 5773 5770 5766 5762 5758 5754 5751 5747 5743 5740 5737 5734 5731 5730 5728 5727 5727 5728 5728 5730 5732 5734 5738 5741 5746 5750 5756 5760 5765 5770 5775 5780 5785 5791 5796 5801
5798 5794 5790 5785 5781 5777 5772 5768 5764 5760 5756 5752 5747 5743 5739 5735 5731 5727 5724 5721 5719 5717 5716 5715 5715 5716 5718 5719 5722 5725 5729 5733 5737 5743 5748 5753 5759 5764 5769 5775 5780 5786 5791
5795 5791 5786 5782 5777 5772 5768 5763 5759 5754 5750 5745 5740 5736 5731 5727 5723 5719 5715 5711 5709 5706 5704 5704 5703 5704 5706 5707 5710 5713 5716 5720 5724 5730 5736 5741 5747 5752 5758 5764 5769 5775 5781
5793 5788 5783 5778 5773 5768 5763 5758 5754 5749 5744 5739 5734 5729 5724 5719 5715 5710 5706 5702 5699 5696 5694 5693 5692 5693 5694 5695 5698 5701 5704 5708 5712 5717 5723 5729 5735 5741 5747 5753 5758 5764 5770
5790 5785 5780 5775 5769 5764 5759 5754 5749 5743 5738 5733 5727 5722 5717 5712 5707 5702 5697 5693 5689 5686 5684 5682 5682 5682 5683 5684 5686 5689 5692 5696 5701 5706 5711 5717 5724 5730 5736 5741 5748 5754 5761
5787 5782 5777 5771 5766 5760 5755 5749 5744 5738 5733 5727 5722 5716 5710 5705 5700 5695 5690 5685 5681 5678 5675 5673 5672 5672 5673 5674 5676 5678 5682 5685 5690 5695 5701 5706 5713 5719 5725 5731 5737 5743 5750
5784 5779 5774 5768 5763 5757 5751 5746 5740 5734 5728 5722 5716 5710 5704 5699 5693 5688 5683 5678 5674 5670 5667 5665 5663 5663 5663 5664 5666 5668 5671 5675 5679 5685 5691 5696 5701 5707 5714 5721 5726 5733 5740
5781 5776 5770 5765 5759 5754 5748 5742 5736 5730 5724 5718 5712 5705 5699 5693 5687 5682 5676 5671 5667 5663 5659 5657 5655 5654 5654 5655 5656 5659 5662 5665 5669 5674 5680 5685 5691 5697 5703 5710 5716 5723 5730
5778 5773 5767 5762 5756 5750 5745 5739 5732 5726 5720 5714 5707 5701 5695 5688 5682 5676 5670 5665 5661 5656 5653 5650 5648 5647 5646 5646 5648 5650 5653 5656 5660 5665 5670 5676 5681 5687 5693 5700 5707 5713 5720
5775 5770 5764 5759 5753 5747 5741 5735 5729 5722 5716 5710 5703 5697 5690 5684 5678 5671 5665 5660 5655 5651 5647 5644 5642 5640 5639 5639 5640 5642 5645 5648 5651 5656 5661 5666 5672 5678 5684 5690 5696 5703 5710
5772 5767 5761 5756 5750 5744 5738 5731 5725 5719 5712 5706 5699 5693 5686 5680 5674 5667 5661 5655 5650 5646 5642 5639 5636 5634 5633 5633 5634 5636 5638 5641 5644 5648 5652 5657 5663 5668 5674 5680 5687 5693 5700
5769 5764 5758 5752 5746 5740 5734 5728 5722 5715 5709 5702 5696 5689 5683 5676 5670 5664 5658 5652 5647 5642 5638 5635 5632 5629 5628 5628 5629 5630 5632 5634 5637 5641 5645 5649 5654 5659 5665 5671 5677 5684 5690
5765 5760 5754 5749 5743 5737 5730 5724 5718 5711 5705 5698 5692 5685 5679 5673 5666 5661 5655 5649 5644 5639 5635 5631 5628 5626 5625 5624 5624 5625 5626 5628 5631 5634 5638 5642 5647 5652 5657 5662 5669 5675 5681
5761 5756 5750 5745 5739 5733 5727 5720 5714 5707 5701 5695 5688 5682 5676 5670 5664 5658 5652 5646 5641 5637 5632 5629 5626 5623 5622 5621 5621 5621 5622 5624 5626 5628 5632 5636 5640 5644 5649 5654 5660 5667 5673
5756 5751 5746 5740 5734 5729 5722 5716 5710 5704 5698 5691 5685 5679 5673 5667 5661 5655 5650 5644 5639 5634 5630 5627 5624 5621 5620 5618 5618 5617 5618 5619 5621 5623 5626 5629 5633 5637 5642 5647 5653 5658 5664
5751 5746 5741 5735 5730 5724 5718 5712 5706 5700 5694 5688 5682 5676 5670 5664 5658 5653 5648 5642 5637 5633 5629 5625 5622 5620 5618 5616 5615 5615 5615 5615 5617 5618 5621 5623 5627 5631 5635 5640 5644 5650 5656
5745 5740 5735 5730 5724 5719 5713 5708 5702 5696 5690 5685 5679 5673 5667 5661 5656 5651 5645 5641 5636 5631 5627 5624 5621 5618 5616 5615 5613 5612 5612 5612 5613 5614 5616 5619 5621 5625 5629 5633 5637 5642 5648
5739 5734 5729 5724 5719 5714 5708 5703 5697 5692 5686 5681 5675 5670 5664 5659 5653 5648 5643 5639 5634 5630 5626 5622 5619 5617 5615 5613 5611 5610 5610 5609 5610 5610 5612 5614 5617 5619 5623 5626 5630 5635 5640
5732 5727 5723 5718 5713 5708 5703 5698 5692 5687 5682 5676 5671 5666 5660 5655 5650 5646 5641 5636 5632 5628 5624 5620 5618 5615 5613 5611 5610 5608 5607 5607 5607 5607 5608 5610 5612 5614 5617 5620 5624 5628 5633
5724 5720 5715 5711 5706 5702 5697 5692 5687 5682 5677 5672 5667 5661 5656 5652 5647 5642 5638 5634 5629 5625 5622 5618 5616 5613 5611 5609 5607 5606 5605 5604 5604 5604 5605 5606 5608 5610 5612 5615 5618 5622 5626
5716 5712 5708 5703 5699 5695 5690 5685 5681 5676 5671 5667 5662 5657 5653 5648 5644 5639 5635 5630 5627 5623 5619 5616 5613 5610 5608 5607 5605 5604 5603 5602 5602 5602 5602 5603 5604 5606 5608 5610 5613 5616 5620
5707 5703 5699 5695 5691 5686 5682 5678 5674 5670 5665 5661 5657 5652 5648 5644 5640 5635 5631 5627 5624 5620 5617 5614 5611 5608 5606 5604 5602 5601 5600 5599 5599 5599 5599 5599 5600 5601 5603 5606 5608 5611 5614
5697 5693 5690 5686 5682 5678 5674 5670 5666 5662 5658 5654 5650 5647 5643 5639 5635 5631 5628 5624 5621 5617 5614 5611 5608 5605 5603 5601 5599 5598 5597 5596 5596 5596 5596 5596 5596 5597 5599 5601 5603 5605 5608
5687 5683 5680 5676 5673 5669 5666 5662 5658 5655 5651 5648 5644 5641 5637 5634 5630 5627 5623 5620 5617 5614 5610 5608 5605 5603 5600 5598 5596 5595 5594 5593 5593 5593 5593 5593 5593 5594 5595 5596 5598 5600 5602
5676 5672 5669 5665 5662 5659 5656 5653 5650 5647 5643 5640 5637 5634 5631 5628 5625 5622 5619 5616 5613 5610 5607 5604 5602 5600 5598 5596 5594 5592 5591 5590 5589 5589 5589 5590 5590 5591 5592 5593 5594 5596 5598